Regional Weather Roundup
Issued by NWS State College, PA

Home | Current Version | Previous Version | Graphics & Text | Print | Product List | Glossary On
Versions: 1 2 3 4 5 6 7 8 9 10 11 12 13 14 15 16 17 18 19 20 21 22 23 24 25 26 27 28 29 30 31 32 33 34 35 36 37 38 39 40 41 42 43 44 45 46 47 48 49 50
000
ASUS41 KCTP 312010
RWRCTP

REGIONAL WEATHER ROUNDUP
NATIONAL WEATHER SERVICE STATE COLLEGE PA
400 PM EDT MON AUG 31 2015

Note: "fair" indicates few or no clouds below 12,000 feet with no
significant weather and/or obstructions to visibility.

* = STATION THAT DOES NOT REPORT PRECIPITATION /E.G. RAIN...SNOW...ETC/
    THUNDER OR FOG.

PAZ002>004-007>009-013>016-020>023-029>032-312100-
WESTERN PENNSYLVANIA

CITY           SKY/WX    TMP DP  RH WIND       PRES   REMARKS
ERIE           SUNNY     81  66  60 W8        30.07F
MEADVILLE      PTSUNNY   84  66  54 W8G17     30.09F
FRANKLIN*      MOSUNNY   84  66  54 SW3       30.10F
NEW CASTLE     NOT AVBL
BEAVER COUNTY  SUNNY     88  66  48 W5        30.08F
BUTLER*        PTSUNNY   82  66  57 N5        30.10F
PITTSBURGH INT MOSUNNY   88  61  40 W8        30.07F
PITTSBURGH     MOSUNNY   87  58  37 VRB7      30.07F
INDIANA*       MOSUNNY   86  64  48 NW9       30.10F
LATROBE        MOSUNNY   86  63  45 W8        30.07F
WASHINGTON CO* SUNNY     88  64  45 W6        30.09F
$$

PAZ004>006-010>012-017>019-024>028-033>037-041-042-045-046-049>053-312100-
CENTRAL PENNSYLVANIA

CITY           SKY/WX    TMP DP  RH WIND       PRES   REMARKS
BRADFORD       MOSUNNY   82  61  48 NW13      30.10F
DUBOIS         MOSUNNY   84  64  50 W9        30.09F
CLEARFIELD     SUNNY     85  64  49 W6        30.07F
JOHNSTOWN      SUNNY     83  59  44 NW12      30.12F
ALTOONA        MOSUNNY   81  67  62 CALM      30.08F
STATE COLLEGE  MOSUNNY   86  64  48 NW9       30.06F
WILLIAMSPORT   MOSUNNY   87  67  51 W9        29.99F
SELINSGROVE    MOSUNNY   87  70  56 VRB3      30.01F
FT INDIANTOWN  DRIZZLE   86  64  48 W7        30.01F
CAPITAL CITY   MOSUNNY   85  68  56 S5        30.01F
HARRISBURG     PTSUNNY   83  70  64 VRB7      30.01F
YORK           PTSUNNY   85  69  58 SW3       30.03F
$$

PAZ038>040-043-044-047-048-054-055-060>062-067>071-312100-
EASTERN PENNSYLVANIA

CITY           SKY/WX    TMP DP  RH WIND       PRES   REMARKS
SCRANTON       MOSUNNY   76  76 100 CALM      30.01F
MOUNT POCONO   MOSUNNY   81  63  54 W13       30.06F
ALLENTOWN      MOSUNNY   90  66  45 W13G21    29.99F
QUAKERTOWN*    PTCLDY    88  66  48 SW6       30.02F
READING        MOSUNNY   88  67  49 W9        29.99F
LANCASTER      MOSUNNY   88  65  46 SW10      30.02F
COATESVILLE    MOCLDY    84  68  58 SW5       30.04F
POTTSTOWN      MOSUNNY   87  67  51 SW8       30.02F
BLUE BELL      PTSUNNY   88  70  55 SW6       30.00F
DOYLESTOWN     MOSUNNY   87  64  46 W7        29.99F
WILLOW GROVE   NOT AVBL
NORTH PHILA    PTSUNNY   89  64  43 SW10      30.00F
PHILADELPHIA   PTSUNNY   88  68  51 SW13      30.00F
$$



USA.gov is the U.S. government's official web portal to all federal, state and local government web resources and services.